Location: Appletree Creek
(38.7363°N, 122.6833°W)
Time: 09:36:11
(UTC+00:00)

NOSS 3-3 (C) - Pass Details

Date: 18 September 2020
Orbit: 837 x 1375 km, 63.4° (Epoch: 13 October)

Event Time Altitude Azimuth Distance (km) Brightness Sun altitude
Exits shadow 12:15:16 31° 219° (SW) 1,496 4.5 -20.0°
Maximum altitude 12:18:12 82° 303° (WNW) 924 3.8 -19.4°
Drops below altitude 10° 12:24:37 10° 32° (NNE) 2,765 7.1 -18.2°
Sets 12:27:22 0° 33° (NNE) 3,799 7.9 -17.7°
